Weather observations for the past three days for
Fairbanks, Eielson Air Force Base
Metric (Imperial)
Date Time (akdt) Wind (kph) Vis. (km) Weather Sky Cond. Temperature (ºC) Relative Humidity Wind Chill (°C) Heat Index (°C) Pressure Precipitation (cm)
Air Dwpt 6 hour altimeter (cm) sea level (mb) 1 hr 3 hr 6 hr
Max. Min.
21 08:55 W 6 4.83 Smoke SCT130 15.2 9.8 70% 75.77 1010.4
21 07:55 S 6 1.42 Smoke SCT120 13.8 9.6 76% 75.77 1010.4
21 06:55 Calm 8.05 Smoke SCT130 12.2 9.7 85% 75.77 1010.5
21 05:55 Calm 16.09 A Few Clouds FEW130 9 7.4 90% 75.77 1010.5
21 04:55 Calm 16.09 Fair CLR 7.1 6 93% 75.77 1010.5
21 03:55 Calm 11.27 A Few Clouds FEW200 7.1 5.9 16.4 6.9 92% 75.74 1010.1
21 02:55 Calm 16.09 Fair CLR 8.3 7.1 92% 75.77 0.0
21 01:55 Calm 16.09 Fair CLR 9.8 7.9 88% 75.72 1009.7
21 00:55 Calm 16.09 Fair CLR 10.1 8 87% 75.74 1010.1
20 23:55 Calm 16.09 Mostly Cloudy FEW110 BKN200 12.9 10.6 86% 75.72 1009.8
20 22:55 Calm 16.09 Mostly Cloudy FEW110 BKN200 14.9 10.9 77% 75.72 1009.7
20 21:55 Calm 16.09 Mostly Cloudy FEW150 BKN200 16.2 11.3 24.5 16.2 73% 75.72 1009.7 0.03
20 20:55 Calm 16.09 Mostly Cloudy SCT150 BKN200 18 9.9 59% 75.72 1009.7
20 19:55 W 6 16.09 Mostly Cloudy FEW075 BKN130 BKN200 17.8 10.4 62% 75.72 1009.7
20 18:55 E 11 16.09 Mostly Cloudy FEW055 SCT075 BKN110 BKN200 18 11.3 65% 75.74 1010.1 0.03
20 17:56 N 19 16.09 Showers in Vicinity SCT055 SCT095 BKN200 19.2 10.5 57% 75.79 1010.9 0.03
20 16:55 NE 9 16.09 Thunderstorm Light Rain BKN070CB BKN170 20 9.8 52% 75.79 1010.9
20 15:55 W 6 16.09 Mostly Cloudy SCT070 BKN090 BKN220 24.6 7.2 24.6 17.4 33% 25 75.74 1010.1
20 14:55 Calm 16.09 Smoke FEW050 BKN220 23.4 7.5 36% 75.82 1011.1
20 13:55 N 7 16.09 Mostly Cloudy FEW050 BKN220 23.1 8.8 40% 75.87 1011.7
20 12:55 W 6 16.09 Smoke BKN220 21.9 9.4 45% 75.92 1012.4
20 11:55 Calm 16.09 Smoke FEW050 BKN200 19.2 9.4 53% 75.97 1013.1
20 10:55 Calm 16.09 Smoke SCT110 18.4 9.2 55% 76 1013.4
20 09:55 Calm 8.05 Smoke SCT130 17.8 8.4 18.1 8 54% 76.02 1013.7
20 09:26 Calm 8.05 Smoke SCT130 17.7 9.1 17.7 8 57% 76.05 1014.1
20 08:55 Calm 16.09 Partly Cloudy SCT130 16.4 7.9 57% 76.05 1014.1
20 07:59 Calm 16.09 A Few Clouds FEW130 15.5 7.8 60% 76.07 1014.4
20 06:55 SE 9 16.09 Partly Cloudy SCT140 12.7 7.8 72% 76.07 1014.5
20 05:55 N 9 9.66 Smoke FEW100 FEW220 8.7 6.5 86% 7 76.05 1014.2
20 04:55 NE 6 16.09 Fair CLR 8.7 6 83% 76.02 1013.8
20 03:59 Vrbl 9 16.09 A Few Clouds FEW100 9 6.3 83% 8 76 1013.5
20 02:59 Calm 16.09 A Few Clouds FEW100 FEW220 11.2 7.5 78% 76 1013.5
20 01:55 Calm 16.09 Partly Cloudy SCT110 12.2 8.1 76% 75.95 1012.8
20 00:55 Calm 16.09 A Few Clouds FEW110 13.4 8.9 74% 75.95 1012.8
19 23:55 Calm 16.09 Mostly Cloudy FEW110 BKN220 16.7 8.9 60% 75.92 1012.4
19 22:55 SW 7 16.09 Mostly Cloudy FEW100 BKN220 18.3 8.3 52% 75.9 1012.1
19 21:55 Calm 16.09 Mostly Cloudy FEW095 FEW140 BKN200 20.1 7.1 24.1 20 43% 75.87 1011.7
19 20:55 NW 13 16.09 Mostly Cloudy FEW070 SCT100 SCT140 BKN200 20.5 7.1 42% 75.87 1011.7
19 19:55 S 9 16.09 Mostly Cloudy FEW070 SCT160 BKN200 22.9 6.6 35% 75.82 1011.0
19 18:55 SW 9 16.09 Mostly Cloudy FEW050 BKN200 23.7 6 32% 75.82 1011.1
19 17:55 SW 7 16.09 Mostly Cloudy FEW050 BKN200 23.8 6.1 32% 75.84 1011.4
19 16:55 SW 7 16.09 Mostly Cloudy FEW050 BKN200 23.5 6.7 34% 75.87 1011.8
19 15:55 SW 7 16.09 Mostly Cloudy FEW050 BKN200 23.1 5.9 23.3 17.6 33% 75.9 1012.1
19 14:55 W 9 16.09 Mostly Cloudy FEW050 BKN200 23 6.7 35% 75.92 1012.4
19 13:55 S 11 16.09 Mostly Cloudy FEW050 BKN200 21.7 6 36% 75.95 1012.8
19 12:55 Calm 16.09 Mostly Cloudy FEW050 BKN200 20.5 5.7 38% 75.97 1013.1
19 11:55 S 9 16.09 Mostly Cloudy SCT050 BKN200 19.7 5.7 40% 76 1013.4
19 10:55 SW 6 16.09 Mostly Cloudy BKN085 BKN200 18.5 5.3 42% 76.02 1013.7
19 09:55 S 13 16.09 Mostly Cloudy BKN085 18.2 5.1 18.4 8.6 42% 76.02 1013.7
19 08:55 W 9 16.09 Mostly Cloudy SCT050 BKN080 BKN130 16.3 5.6 49% 76.02 1013.7
19 07:56 SW 17 16.09 Partly Cloudy FEW090 SCT110 16.5 6.9 53% 75.97 1013.0
19 06:55 Vrbl 7 16.09 Partly Cloudy SCT090 11.7 7.4 75% 75.95 1012.7
19 05:55 Vrbl 7 16.09 Partly Cloudy SCT095 11.6 6.9 73% 75.92 1012.4
19 04:55 Calm 16.09 A Few Clouds FEW090 10.4 6.5 77% 75.87 1011.8
19 03:55 E 13 16.09 A Few Clouds FEW100 FEW220 9.7 6.6 23.1 9 81% 8 75.82 1011.1
19 02:55 Calm 16.09 A Few Clouds FEW220 10.8 6.4 74% 75.79 1010.7
19 01:55 E 7 16.09 A Few Clouds FEW100 FEW220 12.9 6.9 67% 75.74 1010.1
19 00:55 NW 9 16.09 Fair CLR 16 7.5 57% 75.72 1009.6
18 23:55 SW 9 16.09 Partly Cloudy FEW100 SCT220 19.1 6.9 45% 75.69 1009.3
18 22:55 N 7 16.09 Partly Cloudy FEW070 SCT120 SCT220 19.2 8.5 50% 75.64 1008.6
18 21:55 Calm 16.09 Partly Cloudy FEW080 SCT120 SCT220 23.2 6.9 25.5 23 35% 75.62 1008.2
18 20:55 Calm 16.09 Partly Cloudy FEW080 SCT140 24.4 5.2 29% 25 75.59 1007.9
18 19:55 Calm 16.09 Partly Cloudy FEW080 SCT140 SCT220 24.4 6.6 32% 25 75.62 1008.3
18 18:55 NW 11 16.09 Partly Cloudy FEW080 SCT140 SCT220 25.3 4.9 27% 25 75.62 1008.2
18 17:55 NW 11 16.09 Partly Cloudy FEW080 SCT130 SCT220 24.8 4 26% 25 75.64 1008.6
18 16:55 S 11 16.09 Mostly Cloudy FEW070 SCT120 BKN220 24.5 5.3 29% 25 75.67 1009.0
18 15:55 Calm 16.09 Partly Cloudy SCT060 SCT160 23.5 3.9 25 19.5 28% 75.69 1009.4
18 14:55 S 9 16.09 Partly Cloudy SCT060 SCT130 24 4.4 28% 25 75.72 1009.7
18 13:56 Vrbl 11 G 31 16.09 Light Showers Rain SCT060 BKN120 BKN140 19.8 5.8 40% 75.77 1010.4
18 12:55 W 7 16.09 Partly Cloudy SCT070 SCT110 23.7 6 32% 75.74 1010.0
18 11:55 SE 9 16.09 Partly Cloudy FEW095 SCT200 23 7.1 36% 75.79 1010.7
18 10:55 E 6 16.09 Partly Cloudy FEW090 FEW160 SCT200 21.7 8.6 43% 75.82 1011.0
18 09:55 SW 7 16.09 Partly Cloudy FEW090 FEW160 SCT200 20.8 8.4 20.8 8.7 45% 75.82 1011.0
Date Time (akdt) Wind (kph) Vis. (km) Weather Sky Cond. Air Dwpt Max. Min. Relative Humidity Wind Chill (°C) Heat Index (°C) altimeter (cm) sea level (mb) 1 hr 3 hr 6 hr
6 hour
Temperature (ºC) Pressure Precipitation (cm)